Showing default

BRISAT, 41591

Orbit data source: Space-Track

BRISAT, 41591 is a payload satellite owned by Bank Rakyat Id. (ID) in GEO that was launched on Sat, 18 Jun 2016 UTC via an ARIANE 5ECA launch vehicle from the French Guiana (FRGUI). Payload-class satellites include a variety of spacecraft equipped with specific instruments for various scientific and technological missions. These include communications satellites like Starlink; space stations such as the ISS; scientific satellites like the Hubble; Earth observation satellites from companies like Planet Labs, Umbra, and HawkEye 360; GPS; miniature CubeSats for education and research; and military/defense satellites.

Not visible in the next 10 days
Identifier
41591, 2016-039A
Orbit
GEO
Last TLE update
2 days ago
Origin
Manufacturer
SS/Loral (MDA)
Mission
Operational Commercial Communications
Bus & Motor
SSL-1300, R-4D
Mass
3,540 kg wet, ~2,000 kg dry
Launch date (UTC)
2016-06-18 (9 years ago)
Launch vehicle
ARIANE 5ECA
Launch site
French Guiana (FRGUI)
Object type
Payload
Rocket body
Debris
Shape & HBR
Box + 2 Pan + 1 Dish, 31 m
Radar Cross Section
33.485 m², Large (>1 m²)

Expand to show TLE details & history

TLE from 2 days ago
0 BRISAT
1 41591U 16039A   25185.19767053 -.00000184  00000-0  00000-0 0  9992
2 41591   0.0181   6.9592 0002194  97.0357  40.1106  1.00269055 33129
Epoch: 2025-07-04T04:44Z
TLE epoch observation values (Epoch: 2025-07-04T04:44:38.733Z)
Latitude
0.02663°
Longitude
150.51205°
Altitude
35,779.751 km
Speed
3.075 km/s
True Right ascension
09h 36m 30s
True Declination
0° 01' 36"
Sunlit
Object was in daylight at epoch
Visualization orbit readout
Latitude
0.02291°
Longitude
161.92729°
Altitude
35,781.192 km
Speed
3.075 km/s
Apparent Right ascension
09h 57m 11s
Apparent Declination
-5° 18' 28"
Sunlit
Object is in daylight
Visualization observer readout
Local Sidereal Time
17:19:43
Azimuth
279.395° WNW
Elevation
-19.176°
Doppler factor
1
Orbital elements
Apogee altitude
35,797.682 km
Perigee altitude
35,779.179 km
Semi-major axis
42,166.568 km
Eccentricity
0.00022
Inclination
0.0181°
RAAN
6.9592°
Arg. of periapsis
97.0357°
True anomaly
Unknown
Mean anomaly
40.1106°
Eccentric anomaly
Unknown
Mean motion
0.25066 °/min
Orbital period
1,436.19 mins
BSTAR
0
Loading historical data...
41591 neighbors
Loading maneuver chart data...
Loading SW <> Apogee altitude chart data...
Loading historical data...
Loading historical data...
Loading historical data...
Loading historical data...
Loading historical data...
Loading historical data...
Loading historical data...
Other satellites on launch #39 in the year 2016 (2016-06-18 UTC)

BRISAT Visibility

Observer location: undefined°, undefined°

BRISAT is likely not visible in the next few days
Span
Click to sort rows by Start time (UTC) header in descending order
Start Az.
Max El. time (UTC)
Max El. Az.
Max El.
End time (UTC)
End Az.
|